STARLINK-3391, 51117

Orbit data source: Space-Track

STARLINK-3391, 51117 is a payload satellite owned by SpaceX/Seattle (US) in LEO that was launched on Wed, 19 Jan 2022 UTC via an FALCON 9 launch vehicle from the Air Force Eastern Test Range (AFETR). Payload-class satellites include a variety of spacecraft equipped with specific instruments for various scientific and technological missions. These include communications satellites like Starlink; space stations such as the ISS; scientific satellites like the Hubble; Earth observation satellites from companies like Planet Labs, Umbra, and HawkEye 360; GPS; miniature CubeSats for education and research; and military/defense satellites.

Loading next visibility...
Identifier
51117, 2022-005P
Orbit
LEO
Country
Flag of USUS
Related business
Manufacturer
SpaceX/Seattle
Mission
Operational Commercial Communications
Bus & Motor
STARLINK, Unknown motor
Mass
297 kg wet, ~275 kg dry
Launch date (UTC)
2022-01-19 (4 years ago)
Launch vehicle
FALCON 9
Launch site
Air Force Eastern Test Range (AFETR)
Object type
Payload
Rocket body
Debris
Shape & HBR
Box + 1 Pan, 10.1 m
Radar Cross Section
13.562 m², Large (>1 m²)

Expand to show TLE details & history
Last TLE update: 9 hours ago

TLE from 9 hours ago
0 STARLINK-3391
1 51117U 22005P   26094.22353867  .00000098  00000-0  24243-4 0  9997
2 51117  53.2160 174.3855 0001309  84.0961 276.0181 15.08839715232737
Epoch: 2026-04-04T05:21Z
TLE epoch observation values (Epoch: 2026-04-04T05:21:53.741Z)
Latitude
0.00005°
Longitude
-98.63478°
Altitude
540.547 km
Speed
7.593 km/s
True Right ascension
11h 37m 32s
True Declination
0° 00' 00"
Sunlit
Object was in full shadow at epoch
Visualization orbit readout
Latitude
Unknown
Longitude
Unknown
Altitude
Unknown
Speed
Unknown
Apparent Right ascension
Unknown
Apparent Declination
Unknown
Sunlit
N/A
Visualization observer readout
Local Sidereal Time
20:40:55
Azimuth
Unknown
Elevation
Unknown
Doppler factor
Unknown
Orbital elements
Apogee altitude
540.895 km
Perigee altitude
539.084 km
Semi-major axis
6,918.126 km
Eccentricity
0.00013
Inclination
53.216°
RAAN
174.3855°
Arg. of periapsis
84.0961°
True anomaly
276.00318°
Mean anomaly
276.0181°
Eccentric anomaly
276.01064°
Mean motion
3.7719 °/min
Orbital period
95.44 mins
BSTAR
0.000024243
Loading maneuver chart data...
Computing Atmospheric mass density...
Loading historical data...
Loading historical data...
Loading historical data...
Loading historical data...
Loading historical data...
Loading historical data...
Loading historical data...

Documentation

Showing up to 5 results
|